[[{"header":{"parameterUnit":"m.s-1","parameterCategory":1,"la1":30.2991,"la2":30.254,"lo1":-89.0895,"lo2":-89.0444,"dy":0.0017,"dx":0.0017,"nx":28,"ny":28,"refTime":"2025-08-25T03:00:00:Z","depth":0,"parameterNumber":2,"parameterNumberName":"U-component_of_WINDS"},"data":[0,0,0,0,0,0,0,0,0,0,0,0,0,0,0,0,0,0,0,0,0,0,0,0,0,0,0,0,0,0,0,0,0,0,0,0,0,0,0,0,0,0,0,0,0,0,0,0,0,0,0,0,0,0,0,0,0,0,-1.4753,-1.4753,0,-1.4781,-1.4781,-1.4781,-1.474,-1.4738,-1.4737,-1.4735,-1.4765,-1.4767,-1.4769,0,0,0,0,0,0,0,0,0,0,0,0,0,-1.4666,-1.4668,-1.4753,-1.4753,-1.4754,-1.4781,-1.4781,-1.4781,-1.474,-1.4738,-1.4736,-1.4735,-1.4764,-1.4766,-1.4769,0,0,0,0,0,0,0,0,0,0,0,0,0,-1.47,-1.4668,-1.4753,-1.4736,-1.4735,-1.478,-1.4781,-1.4781,-1.474,-1.4738,-1.4736,-1.4734,-1.4763,-1.4766,-1.4769,-1.4833,0,0,-1.4779,-1.478,0,0,0,0,0,0,0,0,-1.4698,-1.4703,-1.4738,-1.4738,-1.4736,-1.4754,-1.4761,-1.4799,-1.4741,-1.4738,-1.4735,-1.4733,-1.4763,-1.4766,-1.4776,-1.4834,-1.4835,-1.4779,-1.4781,-1.4783,-1.4784,0,0,0,0,0,0,0,-1.4695,-1.4701,-1.4764,-1.4739,-1.4738,-1.4728,-1.473,-1.4768,-1.4763,-1.4738,-1.4735,-1.4739,-1.4762,-1.4773,-1.4776,-1.4836,-1.4779,-1.4782,-1.4784,-1.4785,-1.4946,-1.4949,0,0,0,0,0,0,-1.4695,-1.47,-1.4763,-1.4765,-1.4711,-1.4731,-1.4734,-1.4751,-1.4762,-1.4762,-1.4741,-1.4737,-1.4769,-1.4773,-1.4777,-1.4852,-1.4783,-1.4786,-1.4788,-1.4944,-1.4947,-1.4949,0,0,0,0,0,0,-1.4693,-1.4701,-1.4762,-1.4732,-1.4738,-1.4735,-1.4754,-1.4753,-1.4763,-1.4764,-1.4763,-1.4753,-1.4767,-1.4773,-1.4819,-1.4852,-1.4787,-1.479,-1.4941,-1.4945,-1.4948,-1.5001,0,0,0,0,0,0,-1.4691,-1.4701,-1.4724,-1.4732,-1.474,-1.4803,-1.4756,-1.4755,-1.4769,-1.4764,-1.4775,-1.4775,-1.4766,-1.4814,-1.4822,-1.4855,-1.4793,-1.4938,-1.4943,-1.4947,-1.4996,-1.5006,-1.5014,0,0,0,0,0,-1.4688,-1.4739,-1.4726,-1.4734,-1.477,-1.4805,-1.481,-1.4798,-1.4772,-1.4796,-1.4796,-1.4775,-1.4847,-1.482,-1.4828,-1.4862,-1.4936,-1.4942,-1.4947,-1.4992,-1.5004,-1.5014,0,0,0,0,0,0,-1.4735,-1.4739,-1.4725,-1.478,-1.4792,-1.4798,-1.4828,-1.4811,-1.4831,-1.4826,-1.4811,-1.4814,-1.4863,-1.4867,-1.4836,-1.4924,-1.4887,-1.4895,-1.4919,-1.493,-1.4939,-1.4937,-1.4795,0,0,0,0,0,-1.4752,-1.478,-1.4782,-1.483,-1.4837,-1.4832,-1.4846,-1.4836,-1.4849,-1.4854,-1.4858,-1.4871,-1.4896,-1.4914,-1.4938,-1.4997,-1.4998,-1.5025,-1.5034,-1.5041,-1.5047,-1.5079,-1.509,-1.4967,-1.4967,-1.4967,0,0,-1.4787,-1.4793,-1.4811,-1.484,-1.4848,-1.4877,-1.4836,-1.4869,-1.4891,-1.4859,-1.4902,-1.4906,-1.4919,-1.4972,-1.4996,-1.4978,-1.5082,-1.5048,-1.5054,-1.5056,-1.5085,-1.5097,-1.5107,-1.497,-1.497,-1.4969,0,0,-1.4865,-1.4873,-1.4913,-1.4922,-1.4935,-1.4931,-1.4941,-1.4949,-1.495,-1.4993,-1.497,-1.4996,-1.5041,-1.5051,-1.5062,-1.5145,-1.5126,-1.5153,-1.52,-1.523,-1.524,-1.5248,-1.5277,-1.5288,-1.516,-1.516,-1.516,0,-1.4907,-1.495,-1.4936,-1.497,-1.4984,-1.4956,-1.4997,-1.5007,-1.5027,-1.5037,-1.5016,-1.5071,-1.5079,-1.5133,-1.5153,-1.5164,-1.5174,-1.5151,-1.524,-1.5248,-1.5256,-1.5283,-1.5294,-1.5163,-1.5163,-1.5162,-1.5162,0,-1.5,-1.5031,-1.5062,-1.5082,-1.5098,-1.5136,-1.5128,-1.5147,-1.5135,-1.5133,-1.5178,-1.5186,-1.521,-1.5223,-1.5212,-1.5276,-1.5264,-1.5242,-1.5205,-1.5271,-1.5296,-1.5307,-1.5167,-1.5166,-1.5165,-1.5165,0,0,-1.5109,-1.5121,-1.5132,-1.5141,-1.5153,-1.5176,-1.5213,-1.5236,-1.5252,-1.5268,-1.5297,-1.5336,-1.5315,-1.5328,-1.5318,-1.5345,-1.541,-1.532,-1.532,-1.5336,-1.548,-1.5496,-1.5508,-1.5397,-1.5399,-1.5401,-1.5478,0,-1.5187,-1.5249,-1.5237,-1.5298,-1.5325,-1.5299,-1.5331,-1.5342,-1.5342,-1.5365,-1.5365,-1.5392,-1.5363,-1.537,-1.5396,-1.5396,-1.5438,-1.5391,-1.5425,-1.5426,-1.5421,-1.5522,-1.5539,-1.5612,-1.5488,-1.549,-1.5491,0,-1.5285,-1.5304,-1.5367,-1.5374,-1.5385,-1.5414,-1.5434,-1.5457,-1.5469,-1.5467,-1.5481,-1.5467,-1.5503,-1.5466,-1.5515,-1.5483,-1.5497,-1.5499,-1.5502,-1.5504,-1.5462,-1.5526,-1.5635,-1.5646,-1.5507,-1.5506,-1.5505,0,-1.5358,-1.5398,-1.5441,-1.5449,-1.5459,-1.5479,-1.5485,-1.5495,-1.551,-1.5528,-1.5537,-1.556,-1.5572,-1.559,-1.5582,-1.5555,-1.5633,-1.5595,-1.5632,-1.5632,-1.5649,-1.5648,-1.5761,-1.5659,-1.5658,-1.5658,-1.5658,0,-1.5445,-1.5485,-1.5473,-1.5499,-1.5543,-1.553,-1.5573,-1.5575,-1.5584,-1.5611,-1.559,-1.5615,-1.5603,-1.5628,-1.5622,-1.5664,-1.567,-1.5669,-1.5666,-1.567,-1.567,-1.5678,-1.5673,-1.5661,-1.566,-1.566,-1.5659,0,-1.5533,-1.5527,-1.5572,-1.5577,-1.558,-1.5611,-1.5616,-1.5641,-1.5639,-1.5672,-1.568,-1.5676,-1.5704,-1.5698,-1.5728,-1.5724,-1.5777,-1.5769,-1.5773,-1.577,-1.5807,-1.5804,-1.5929,-1.5945,-1.5833,-1.5834,-1.5835,0,-1.5589,-1.5619,-1.5627,-1.5643,-1.565,-1.5676,-1.569,-1.5679,-1.5695,-1.5711,-1.5734,-1.576,-1.5779,-1.5825,-1.5826,-1.5849,-1.5841,-1.5883,-1.5844,-1.5847,-1.5841,-1.5839,-1.5842,-1.5891,-1.5892,-1.5893,-1.5894,0,-1.5689,-1.5684,-1.5706,-1.5727,-1.5745,-1.5761,-1.5775,-1.5789,-1.5779,-1.5798,-1.5826,-1.5841,-1.5872,-1.5898,-1.5919,-1.5925,-1.5908,-1.5906,-1.5916,-1.592,-1.5921,-1.592,-1.5793,-1.5903,-1.5902,-1.5902,-1.5901,-1.5901,-1.5762,-1.5787,-1.5797,-1.5822,-1.5831,-1.5844,-1.5867,-1.5868,-1.5891,-1.5914,-1.5906,-1.5938,-1.5949,-1.5976,-1.5984,-1.6009,-1.5993,-1.6008,-1.6011,-1.6015,-1.6019,-1.5917,-1.6013,-1.6013,-1.6013,-1.6012,-1.6012,0,-1.586,-1.5865,-1.5888,-1.5908,-1.5928,-1.5909,-1.5924,-1.5942,-1.597,-1.5981,-1.6001,-1.6033,-1.6058,-1.606,-1.6084,-1.6103,-1.6096,-1.611,-1.6108,-1.611,-1.6032,-1.6021,-1.6115,-1.6115,-1.6115,-1.6115,-1.6115,-1.6115,-1.5914,-1.5955,-1.5951,-1.5996,-1.6001,-1.6031,-1.6041,-1.6054,-1.6063,-1.6099,-1.6119,-1.6121,-1.6129,-1.6153,-1.6175,-1.6175,-1.6184,-1.6201,-1.6198,-1.6125,-1.6115,-1.6105,-1.6095,-1.6203,-1.6203,-1.6274,-1.6274,-1.6275]},{"header":{"parameterUnit":"m.s-1","parameterCategory":1,"la1":30.2991,"la2":30.254,"lo1":-89.0895,"lo2":-89.0444,"dy":0.0017,"dx":0.0017,"nx":28,"ny":28,"refTime":"2025-08-25T03:00:00:Z","depth":0,"parameterNumber":3,"parameterNumberName":"V-component_of_WINDS"},"data":[0,0,0,0,0,0,0,0,0,0,0,0,0,0,0,0,0,0,0,0,0,0,0,0,0,0,0,0,0,0,0,0,0,0,0,0,0,0,0,0,0,0,0,0,0,0,0,0,0,0,0,0,0,0,0,0,0,0,1.7598,1.7598,0,1.7584,1.7584,1.7584,1.7553,1.7552,1.7552,1.7551,1.7538,1.7538,1.7538,0,0,0,0,0,0,0,0,0,0,0,0,0,1.7598,1.7598,1.7598,1.7598,1.7598,1.7584,1.7584,1.7584,1.7553,1.7552,1.7551,1.7551,1.7537,1.7538,1.7538,0,0,0,0,0,0,0,0,0,0,0,0,0,1.7592,1.7598,1.7598,1.7581,1.7579,1.7584,1.7584,1.7584,1.7553,1.7552,1.7551,1.755,1.7537,1.7538,1.7538,1.756,0,0,1.7539,1.7539,0,0,0,0,0,0,0,0,1.7593,1.7592,1.7583,1.7582,1.758,1.7569,1.7579,1.7576,1.7553,1.7563,1.7551,1.755,1.7549,1.7548,1.7548,1.7559,1.7559,1.7539,1.7539,1.754,1.754,0,0,0,0,0,0,0,1.7593,1.7593,1.7593,1.7583,1.7581,1.7574,1.7572,1.7578,1.7562,1.7562,1.756,1.7558,1.7548,1.7548,1.7547,1.7558,1.7539,1.754,1.754,1.754,1.7586,1.7587,0,0,0,0,0,0,1.7596,1.7593,1.7593,1.7592,1.7584,1.7574,1.7572,1.7574,1.7561,1.7559,1.7559,1.7557,1.7547,1.7547,1.7547,1.7571,1.754,1.754,1.754,1.7585,1.7587,1.7588,0,0,0,0,0,0,1.7596,1.7596,1.7594,1.7592,1.7591,1.7575,1.7577,1.7574,1.7574,1.7559,1.7556,1.7562,1.7547,1.7546,1.7557,1.757,1.754,1.754,1.7584,1.7586,1.7587,1.7619,0,0,0,0,0,0,1.7596,1.7596,1.7604,1.7593,1.7591,1.7604,1.7578,1.7574,1.7574,1.7571,1.7561,1.7559,1.7546,1.7556,1.7557,1.757,1.7541,1.7583,1.7585,1.7587,1.7617,1.7622,1.7626,0,0,0,0,0,1.7596,1.7614,1.7605,1.7605,1.7601,1.7604,1.7604,1.7589,1.7576,1.7583,1.7574,1.7559,1.7569,1.7558,1.7558,1.7571,1.7582,1.7584,1.7586,1.7615,1.7621,1.7626,0,0,0,0,0,0,1.7628,1.7612,1.7602,1.7616,1.7612,1.7599,1.7609,1.7595,1.7595,1.7592,1.7573,1.7571,1.7584,1.7579,1.7567,1.7591,1.7573,1.7575,1.7594,1.76,1.7604,1.7604,1.7541,0,0,0,0,0,1.7637,1.7641,1.7627,1.7641,1.7639,1.7625,1.7626,1.7614,1.7609,1.7607,1.7598,1.7594,1.7596,1.7598,1.7599,1.7616,1.7613,1.7626,1.763,1.7634,1.7636,1.7644,1.7649,1.7595,1.7595,1.7595,0,0,1.7655,1.7647,1.765,1.7647,1.7643,1.7647,1.7623,1.7629,1.7632,1.7608,1.7617,1.7611,1.7605,1.7618,1.7624,1.7614,1.765,1.7637,1.764,1.764,1.7647,1.7652,1.7657,1.7597,1.7596,1.7596,0,0,1.769,1.7684,1.7695,1.7691,1.7684,1.7674,1.7677,1.7666,1.7661,1.7669,1.7651,1.7655,1.7659,1.7655,1.7654,1.7687,1.7673,1.7688,1.7711,1.7719,1.7723,1.7727,1.7738,1.7743,1.7691,1.7691,1.7691,0,1.7713,1.7719,1.7703,1.7709,1.7708,1.7687,1.7698,1.7694,1.7688,1.7688,1.7677,1.7682,1.7676,1.7688,1.7697,1.7697,1.7699,1.7689,1.7724,1.7728,1.7731,1.7741,1.7746,1.7693,1.7692,1.7692,1.7692,0,1.7747,1.7752,1.7761,1.7756,1.7756,1.7765,1.775,1.7752,1.7741,1.7733,1.7742,1.7734,1.7733,1.7736,1.7725,1.7747,1.7741,1.7728,1.7708,1.7738,1.7748,1.7752,1.7695,1.7695,1.7694,1.7694,0,0,1.7801,1.7786,1.779,1.7787,1.7778,1.7781,1.7789,1.7788,1.779,1.7787,1.7793,1.7797,1.7784,1.7783,1.7771,1.7779,1.7805,1.7765,1.7764,1.7772,1.7828,1.7837,1.7842,1.7796,1.7797,1.7797,1.7828,0,1.7833,1.7845,1.7831,1.7846,1.785,1.783,1.7837,1.7832,1.7824,1.7826,1.7818,1.782,1.7804,1.7803,1.781,1.7801,1.7816,1.7798,1.7801,1.7801,1.7802,1.7847,1.7856,1.7885,1.7831,1.7832,1.7832,0,1.7871,1.787,1.7885,1.7875,1.7876,1.7882,1.788,1.7882,1.7877,1.787,1.7869,1.7855,1.7862,1.7845,1.7854,1.7842,1.7843,1.7838,1.7839,1.7838,1.7818,1.7846,1.7894,1.7898,1.7838,1.7838,1.7837,0,1.7908,1.791,1.7919,1.7917,1.7905,1.791,1.7906,1.7899,1.7899,1.7897,1.7897,1.7896,1.7896,1.7895,1.7882,1.787,1.7893,1.7874,1.7887,1.7888,1.7892,1.7892,1.794,1.7894,1.7894,1.7894,1.7894,0,1.7944,1.7955,1.7935,1.7941,1.7951,1.7935,1.7947,1.794,1.7934,1.7938,1.7921,1.7925,1.7908,1.791,1.79,1.7909,1.7909,1.7904,1.7901,1.7905,1.7906,1.7904,1.7901,1.7895,1.7895,1.7895,1.7895,0,1.7986,1.7974,1.7982,1.7971,1.7968,1.7977,1.7967,1.7971,1.7963,1.7968,1.7968,1.7955,1.7956,1.7943,1.7943,1.7936,1.795,1.7944,1.7951,1.7949,1.7963,1.7961,1.8011,1.8017,1.7968,1.7969,1.7969,0,1.801,1.8017,1.8006,1.8008,1.8004,1.8006,1.8006,1.7991,1.7992,1.7986,1.7991,1.7991,1.7991,1.7995,1.7985,1.7984,1.7978,1.7995,1.7977,1.7981,1.7977,1.7976,1.7976,1.7999,1.7999,1.8,1.8,0,1.8053,1.8046,1.8047,1.8045,1.8045,1.8043,1.804,1.8042,1.8026,1.8027,1.8029,1.8028,1.8028,1.8028,1.8026,1.8021,1.8008,1.8006,1.8009,1.8012,1.8016,1.8013,1.796,1.8005,1.8004,1.8004,1.8004,1.8003,1.8085,1.8091,1.8084,1.8085,1.8081,1.8078,1.8082,1.8074,1.8075,1.8073,1.8064,1.8067,1.8061,1.8056,1.8053,1.8055,1.8046,1.8051,1.8052,1.8053,1.8055,1.8017,1.8055,1.8054,1.8054,1.8054,1.8054,0,1.8127,1.8121,1.8122,1.8118,1.8119,1.8107,1.8103,1.8104,1.8107,1.8102,1.8102,1.8104,1.8104,1.8094,1.8093,1.8097,1.8091,1.8097,1.8096,1.8095,1.8063,1.806,1.8102,1.8102,1.8102,1.8102,1.8102,1.8102,1.8148,1.8156,1.8149,1.8155,1.8149,1.8152,1.815,1.8148,1.8144,1.8147,1.8147,1.814,1.8134,1.8132,1.8132,1.8129,1.8129,1.8137,1.8132,1.8102,1.8097,1.8093,1.809,1.8138,1.8138,1.8164,1.8164,1.8164]}]]